DW2786 Weather Reports


Display with metric or nautical units.
time (UTC)temp
F
wind
direction
speed
MPH
gust
MPH
rain 1hr
in
rain 24hr
in
rain mn
in
humidity
%
barometer
mb
20191017153358 53 241 0.0 8.0 0.00 0.05 0.00 66 1015.6
20191017152855 53 277 1.0 9.0 0.00 0.05 0.00 69 1015.7
20191017152351 53 266 5.0 9.0 0.00 0.05 0.00 66 1015.7
20191017151831 52 272 2.0 4.0 0.00 0.05 0.00 67 1015.7
20191017151327 52 284 2.0 9.0 0.00 0.05 0.00 67 1015.7
20191017150824 51 360 2.0 11.0 0.00 0.05 0.00 67 1015.7
20191017150401 52 360 4.0 11.0 0.00 0.05 0.00 69 1015.7
20191017145857 52 227 2.0 7.0 0.00 0.10 0.00 71 1015.7
20191017145354 52 292 2.0 8.0 0.00 0.10 0.00 72 1015.6
20191017144850 52 254 3.0 8.0 0.00 0.10 0.00 73 1015.7
20191017144331 51 262 0.0 10.0 0.00 0.10 0.00 71 1015.6
20191017143827 51 257 3.0 10.0 0.00 0.10 0.00 71 1015.6
20191017143404 50 140 1.0 6.0 0.00 0.10 0.00 74 1015.7
20191017142859 50 195 3.0 6.0 0.00 0.10 0.00 76 1015.6
20191017142355 50 200 1.0 3.0 0.00 0.10 0.00 73 1015.7
20191017141849 51 202 0.0 4.0 0.00 0.10 0.00 74 1015.6
20191017141328 50 203 2.0 4.0 0.00 0.10 0.00 75 1015.5
20191017140818 49 209 0.0 6.0 0.00 0.10 0.00 77 1015.6
20191017140355 49 207 2.0 7.0 0.00 0.10 0.00 77 1015.6
20191017135852 48 177 1.0 7.0 0.00 0.22 0.00 79 1015.6
20191017135348 48 280 1.0 8.0 0.00 0.22 0.00 78 1015.6
20191017134845 49 238 3.0 8.0 0.00 0.22 0.00 78 1015.6
20191017134342 47 215 2.0 5.0 0.00 0.22 0.00 79 1015.6
20191017133837 47 229 0.0 3.0 0.00 0.22 0.00 80 1015.7
20191017133318 47 229 0.0 4.0 0.00 0.22 0.00 81 1015.7
20191017132855 46 218 1.0 5.0 0.00 0.22 0.00 82 1015.6
20191017132351 46 218 1.0 4.0 0.00 0.22 0.00 82 1015.5
20191017131848 46 217 0.0 2.0 0.00 0.22 0.00 83 1015.4
20191017131342 46 218 0.0 4.0 0.00 0.22 0.00 82 1015.6
20191017130838 46 218 0.0 4.0 0.00 0.22 0.00 82 1015.5
20191017130335 46 217 1.0 4.0 0.00 0.22 0.00 82 1015.5
20191017125815 46 222 2.0 5.0 0.00 0.33 0.00 81 1015.5
20191017125352 47 221 1.0 8.0 0.00 0.33 0.00 81 1015.5
20191017124844 46 221 1.0 8.0 0.00 0.33 0.00 80 1015.4
20191017124340 47 241 1.0 5.0 0.00 0.33 0.00 82 1015.4
20191017123837 46 242 2.0 5.0 0.00 0.33 0.00 81 1015.2
20191017123333 46 250 2.0 4.0 0.00 0.33 0.00 82 1015.2
20191017122830 46 247 1.0 3.0 0.00 0.33 0.00 84 1015.1
20191017122311 45 244 0.0 4.0 0.00 0.33 0.00 84 1015.1
20191017121848 45 253 1.0 4.0 0.00 0.33 0.00 86 1015.0
20191017121344 44 257 0.0 1.0 0.00 0.33 0.00 87 1015.0
20191017120841 44 257 0.0 2.0 0.00 0.33 0.00 86 1015.1
20191017120337 43 251 0.0 2.0 0.00 0.33 0.00 87 1015.0
20191017115834 43 259 0.0 0.0 0.00 0.52 0.00 86 1015.1
20191017115330 43 259 0.0 0.0 0.00 0.52 0.00 84 1014.9
20191017114811 44 258 0.0 0.0 0.00 0.52 0.00 84 1015.0
20191017114348 44 259 0.0 0.0 0.00 0.52 0.00 83 1015.1
20191017113844 44 259 0.0 0.0 0.00 0.52 0.00 82 1015.0
20191017113341 45 259 0.0 0.0 0.00 0.52 0.00 81 1015.0
20191017112838 45 259 0.0 0.0 0.00 0.52 0.00 81 1015.0
20191017112334 45 259 0.0 3.0 0.00 0.52 0.00 81 1015.0
20191017111815 45 259 0.0 4.0 0.00 0.52 0.00 80 1014.9
20191017111403 46 259 1.0 8.0 0.00 0.52 0.00 79 1015.0
20191017110843 46 261 2.0 8.0 0.00 0.52 0.00 79 1014.8
20191017110340 46 271 0.0 6.0 0.00 0.52 0.00 79 1014.7
20191017105837 46 269 0.0 12.0 0.00 0.96 0.00 79 1014.8
20191017105333 47 269 1.0 12.0 0.00 0.96 0.00 78 1014.9
20191017104830 47 263 0.0 4.0 0.00 0.96 0.00 78 1014.8
20191017104310 47 267 0.0 4.0 0.00 0.96 0.00 78 1014.7
20191017103903 47 273 1.0 3.0 0.00 0.96 0.00 78 1014.6
20191017103344 47 273 0.0 1.0 0.00 0.96 0.00 77 1014.4
20191017102840 47 272 0.0 7.0 0.00 0.96 0.00 78 1014.4
20191017102337 47 272 0.0 7.0 0.00 0.96 0.00 76 1014.4
20191017101834 47 235 0.0 5.0 0.00 0.96 0.00 76 1014.3
20191017101331 47 248 0.0 8.0 0.00 0.96 0.00 76 1014.3
20191017100811 47 248 1.0 8.0 0.00 0.96 0.00 76 1014.1
20191017100404 47 241 1.0 7.0 0.00 0.96 0.00 76 1014.1
20191017095845 47 253 2.0 7.0 0.00 1.01 0.00 77 1014.0
20191017095341 47 238 0.0 4.0 0.00 1.01 0.00 76 1014.1
20191017094838 48 239 1.0 10.0 0.00 1.01 0.00 76 1014.1
20191017094333 47 261 3.0 10.0 0.00 1.01 0.00 76 1014.1
20191017093830 47 238 1.0 5.0 0.00 1.01 0.00 76 1014.0
20191017093308 47 239 0.0 3.0 0.00 1.01 0.00 76 1013.8
20191017092901 47 239 1.0 3.0 0.00 1.01 0.00 76 1013.8
20191017092342 47 234 0.0 13.0 0.00 1.01 0.00 75 1013.9
20191017091838 48 234 1.0 13.0 0.00 1.01 0.00 75 1013.8
20191017091331 48 212 3.0 9.0 0.00 1.01 0.00 76 1013.8
20191017090828 48 209 2.0 5.0 0.00 1.01 0.00 76 1013.5
20191017090324 48 222 0.0 6.0 0.00 1.01 0.00 77 1013.5
20191017085901 48 226 2.0 6.0 0.00 1.01 0.00 76 1013.4
20191017085358 48 219 1.0 5.0 0.00 1.01 0.00 77 1013.4
20191017084838 48 238 1.0 4.0 0.00 1.01 0.00 77 1013.5
20191017084334 48 258 0.0 10.0 0.00 1.01 0.00 77 1013.5
20191017083831 48 255 1.0 9.0 0.00 1.01 0.00 77 1013.4
20191017083327 48 211 1.0 5.0 0.00 1.01 0.00 78 1013.4
20191017082824 48 207 2.0 9.0 0.00 1.01 0.00 78 1013.4
20191017082400 48 244 3.0 9.0 0.00 1.01 0.00 78 1013.4
20191017081856 48 205 0.0 10.0 0.00 1.01 0.00 78 1013.4
20191017081337 48 226 2.0 10.0 0.00 1.01 0.00 78 1013.4
20191017080834 48 237 0.0 5.0 0.00 1.01 0.00 78 1013.5
20191017080331 48 249 1.0 5.0 0.00 1.01 0.00 78 1013.5
20191017075828 48 216 0.0 0.0 0.00 1.01 0.00 79 1013.5
20191017075325 48 216 0.0 3.0 0.00 1.01 0.00 78 1013.5
20191017074901 48 216 0.0 7.0 0.00 1.01 0.00 78 1013.5
20191017074357 48 219 1.0 7.0 0.00 1.01 0.00 78 1013.6
20191017073838 48 269 0.0 9.0 0.00 1.01 0.00 78 1013.4
20191017073335 48 270 0.0 9.0 0.00 1.01 0.00 77 1013.4
20191017072829 48 246 2.0 9.0 0.00 1.01 0.00 77 1013.4
20191017072326 48 261 1.0 6.0 0.00 1.01 0.00 77 1013.4
20191017071902 48 271 1.0 13.0 0.00 1.01 0.00 77 1013.5
20191017071359 48 250 2.0 10.0 0.00 1.01 0.00 77 1013.6
20191017070856 48 232 0.0 5.0 0.00 1.01 0.00 77 1013.6
20191017070337 48 221 0.0 5.0 0.00 1.01 0.00 78 1013.5
20191017065834 48 204 1.0 6.0 0.00 1.01 0.00 77 1013.5
20191017065331 48 205 2.0 7.0 0.00 1.01 0.00 77 1013.5
20191017064828 48 219 0.0 7.0 0.00 1.01 0.00 78 1013.4
20191017064324 48 257 1.0 8.0 0.00 1.01 0.00 78 1013.5
20191017063901 48 250 2.0 5.0 0.00 1.01 0.00 78 1013.5
20191017063357 48 225 1.0 7.0 0.00 1.01 0.00 78 1013.5
20191017062838 48 223 2.0 7.0 0.00 1.01 0.00 78 1013.4
20191017062335 48 241 2.0 6.0 0.00 1.01 0.00 79 1013.4
20191017061831 48 204 0.0 3.0 0.00 1.01 0.00 78 1013.6
20191017061328 48 202 0.0 7.0 0.00 1.01 0.00 79 1013.4
20191017060821 48 227 1.0 5.0 0.00 1.01 0.00 79 1013.4
20191017060318 48 200 1.0 6.0 0.00 1.01 0.00 79 1013.5
20191017055819 48 153 1.0 6.0 0.00 1.01 1.01 79 1013.4
20191017055316 48 254 1.0 11.0 0.00 1.01 1.01 79 1013.4
20191017054812 48 267 3.0 11.0 0.00 1.01 1.01 80 1013.4
20191017054309 48 209 2.0 12.0 0.00 1.01 1.01 80 1013.4
20191017053825 48 281 3.0 12.0 0.00 1.01 1.01 80 1013.6
20191017053322 48 213 0.0 5.0 0.00 1.01 1.01 81 1013.4
20191017052819 48 220 1.0 6.0 0.00 1.01 1.01 81 1013.5
20191017052319 48 171 1.0 6.0 0.00 1.01 1.01 81 1013.6
20191017051816 48 230 0.0 8.0 0.00 1.01 1.01 82 1013.6
20191017051313 48 265 0.0 8.0 0.00 1.01 1.01 83 1013.6
20191017050809 48 252 0.0 8.0 0.00 1.01 1.01 83 1013.5
20191017050326 47 257 0.0 9.0 0.00 1.01 1.01 83 1013.5
20191017045823 47 250 1.0 9.0 0.00 1.01 1.01 83 1013.5
20191017045319 47 296 0.0 8.0 0.00 1.01 1.01 84 1013.5
20191017044820 47 258 0.0 4.0 0.01 1.01 1.01 85 1013.6
20191017044317 47 263 0.0 4.0 0.01 1.01 1.01 85 1013.5
20191017043813 47 265 0.0 7.0 0.01 1.01 1.01 86 1013.6
20191017043310 47 266 1.0 7.0 0.01 1.01 1.01 86 1013.5
20191017042827 47 238 0.0 2.0 0.01 1.01 1.01 87 1013.6
20191017042323 47 238 0.0 3.0 0.01 1.01 1.01 88 1013.6
20191017041820 47 236 0.0 6.0 0.01 1.01 1.01 88 1013.6
20191017041320 47 253 1.0 6.0 0.01 1.01 1.01 87 1013.6
20191017040817 47 157 1.0 7.0 0.01 1.01 1.01 87 1013.8
20191017040314 47 215 0.0 7.0 0.01 1.01 1.01 87 1013.8
20191017035851 47 206 2.0 10.0 0.01 1.01 1.01 87 1013.8
20191017035345 47 219 3.0 10.0 0.01 1.01 1.01 86 1013.7
20191017034842 47 207 0.0 3.0 0.00 1.00 1.00 86 1013.7
20191017034339 47 212 1.0 7.0 0.00 1.00 1.00 86 1013.7
20191017033819 47 196 1.0 7.0 0.00 1.00 1.00 85 1013.7
20191017033356 47 226 1.0 4.0 0.00 1.00 1.00 85 1013.8
20191017032852 47 227 0.0 6.0 0.00 1.00 1.00 84 1013.7
20191017032346 48 227 1.0 8.0 0.00 1.00 1.00 83 1013.7
20191017031843 48 261 2.0 7.0 0.00 1.00 1.00 83 1013.7
20191017031339 48 205 1.0 4.0 0.00 1.00 1.00 83 1013.5
20191017030836 48 205 2.0 5.0 0.00 1.00 1.00 83 1013.6
20191017030316 48 225 2.0 8.0 0.00 1.00 1.00 83 1013.7
20191017025851 47 136 3.0 8.0 0.00 1.00 1.00 83 1013.8
20191017025348 47 207 1.0 8.0 0.00 1.00 1.00 84 1013.7
20191017024845 47 202 1.0 8.0 0.00 1.00 1.00 84 1013.7
20191017024341 47 205 1.0 8.0 0.00 1.00 1.00 84 1013.6
20191017023838 47 192 3.0 8.0 0.00 1.00 1.00 85 1013.4
20191017023334 47 191 0.0 4.0 0.00 1.00 1.00 85 1013.5
20191017022812 47 192 2.0 7.0 0.00 1.00 1.00 85 1013.5
20191017022345 47 193 2.0 7.0 0.00 1.00 1.00 85 1013.5
20191017021842 47 191 1.0 7.0 0.00 1.00 1.00 86 1013.6
20191017021339 47 189 0.0 7.0 0.00 1.00 1.00 86 1013.7
20191017020834 47 193 0.0 7.0 0.00 1.00 1.00 87 1013.7
20191017020330 46 192 0.0 7.0 0.00 1.00 1.00 87 1013.5
20191017015827 46 186 1.0 4.0 0.00 1.00 1.00 87 1013.5
20191017015404 46 195 1.0 3.0 0.00 1.00 1.00 87 1013.5
20191017014844 46 196 1.0 3.0 0.00 1.00 1.00 86 1013.5
20191017014339 46 196 0.0 5.0 0.00 1.00 1.00 86 1013.5
20191017013836 47 196 1.0 6.0 0.00 1.00 1.00 86 1013.6
20191017013330 47 184 2.0 8.0 0.00 1.00 1.00 86 1013.6
20191017012827 47 194 1.0 8.0 0.00 1.00 1.00 85 1013.6
20191017012324 47 181 2.0 8.0 0.00 1.00 1.00 84 1013.6
20191017011900 47 211 0.0 7.0 0.00 1.00 1.00 84 1013.6
20191017011341 47 215 0.0 7.0 0.00 1.00 1.00 83 1013.6
20191017010837 47 207 2.0 6.0 0.00 1.00 1.00 82 1013.6
20191017010332 47 228 1.0 10.0 0.00 1.00 1.00 82 1013.7
20191017005829 47 204 3.0 10.0 0.00 1.00 1.00 82 1013.6
20191017005326 47 205 1.0 5.0 0.00 1.00 1.00 83 1013.6
20191017004858 47 202 0.0 4.0 0.00 1.00 1.00 83 1013.4
20191017004355 47 203 0.0 6.0 0.00 1.00 1.00 82 1013.6
20191017003836 47 198 0.0 6.0 0.00 1.00 1.00 82 1013.6
20191017003332 47 229 1.0 6.0 0.00 1.00 1.00 82 1013.5
20191017002829 47 194 0.0 11.0 0.00 1.00 1.00 82 1013.6
20191017002323 47 215 2.0 6.0 0.00 1.00 1.00 82 1013.4
20191017001900 47 209 0.0 7.0 0.00 1.00 1.00 83 1013.3
20191017001357 47 199 1.0 7.0 0.00 1.00 1.00 81 1013.4
20191017000853 47 209 2.0 6.0 0.00 1.00 1.00 81 1013.3
20191017000334 47 165 1.0 6.0 0.00 1.00 1.00 81 1013.4
20191016235831 47 190 2.0 5.0 0.00 1.00 1.00 81 1013.4
20191016235325 47 175 0.0 11.0 0.00 1.00 1.00 81 1013.4
20191016234902 47 180 1.0 11.0 0.00 1.00 1.00 80 1013.3
20191016234358 47 234 0.0 6.0 0.00 1.00 1.00 81 1013.3
20191016233855 48 236 1.0 6.0 0.00 1.00 1.00 80 1013.3
20191016233351 47 213 0.0 5.0 0.00 1.00 1.00 80 1013.1
20191016232832 47 208 0.0 10.0 0.00 1.00 1.00 79 1013.2
20191016232329 48 174 0.0 10.0 0.00 1.00 1.00 80 1013.1
20191016231826 48 255 0.0 10.0 0.00 1.00 1.00 80 1013.0
20191016231403 48 188 3.0 7.0 0.00 1.00 1.00 79 1012.9
20191016230859 48 209 2.0 6.0 0.00 1.00 1.00 80 1012.9
20191016230355 48 175 0.0 9.0 0.00 1.00 1.00 79 1012.9
20191016225852 48 176 2.0 9.0 0.00 1.00 1.00 80 1012.8
20191016225332 48 168 1.0 6.0 0.00 1.00 1.00 79 1012.8
20191016224906 48 211 1.0 7.0 0.00 1.00 1.00 79 1012.8
20191016224359 48 206 2.0 7.0 0.00 1.00 1.00 79 1012.7
20191016223856 48 211 1.0 6.0 0.00 1.00 1.00 79 1012.7
20191016223352 48 244 1.0 6.0 0.00 1.00 1.00 78 1012.6
20191016222849 48 207 1.0 6.0 0.00 1.00 1.00 78 1012.6
20191016222346 48 231 1.0 7.0 0.00 1.00 1.00 77 1012.7
20191016221826 48 236 0.0 7.0 0.00 1.00 1.00 77 1012.6
20191016221323 48 216 1.0 5.0 0.00 1.00 1.00 77 1012.6
20191016220900 48 227 1.0 7.0 0.00 1.00 1.00 77 1012.6
20191016220356 48 197 3.0 7.0 0.00 1.00 1.00 77 1012.6
20191016215853 48 265 0.0 6.0 0.00 1.00 1.00 77 1012.6
20191016215350 48 248 1.0 4.0 0.00 1.00 1.00 78 1012.6
20191016214842 48 220 0.0 4.0 0.00 1.00 1.00 78 1012.4
20191016214322 48 209 1.0 7.0 0.00 1.00 1.00 78 1012.3
20191016213859 48 246 1.0 7.0 0.00 1.00 1.00 78 1012.3
20191016213355 48 360 1.0 6.0 0.00 1.00 1.00 78 1012.3
20191016212851 48 116 1.0 9.0 0.00 1.00 1.00 78 1012.3
20191016212347 48 176 0.0 7.0 0.00 1.00 1.00 78 1012.4
20191016211844 48 173 1.0 7.0 0.00 1.00 1.00 78 1012.4
20191016211340 48 244 1.0 8.0 0.00 1.00 1.00 81 1012.3
20191016210820 48 201 2.0 6.0 0.00 1.00 1.00 77 1012.1
20191016210357 48 207 0.0 7.0 0.00 1.00 1.00 77 1012.1
20191016205853 48 265 0.0 7.0 0.00 1.00 1.00 77 1012.1
20191016205346 49 219 2.0 5.0 0.00 1.00 1.00 77 1012.0
20191016204842 49 284 0.0 3.0 0.00 1.00 1.00 78 1012.0
20191016204339 49 279 0.0 7.0 0.00 1.00 1.00 76 1012.0
20191016203834 49 281 1.0 8.0 0.00 1.00 1.00 76 1012.0
20191016203311 49 360 3.0 8.0 0.00 1.00 1.00 75 1012.0
20191016202848 49 279 1.0 8.0 0.00 1.00 1.00 75 1011.9
20191016202344 49 277 1.0 9.0 0.00 1.00 1.00 76 1011.8
20191016201841 49 269 1.0 9.0 0.00 1.00 1.00 75 1011.8
20191016201336 49 234 1.0 7.0 0.00 1.00 1.00 76 1011.8
20191016200833 49 242 0.0 10.0 0.00 1.00 1.00 75 1011.7
20191016200329 49 360 3.0 11.0 0.00 1.00 1.00 77 1011.4
20191016195809 49 217 3.0 12.0 0.00 1.00 1.00 77 1011.5
20191016195345 49 250 0.0 14.0 0.00 1.00 1.00 76 1011.4
20191016194842 50 246 1.0 14.0 0.00 1.00 1.00 76 1011.3
20191016194403 50 250 0.0 7.0 0.00 1.00 1.00 78 1011.4
20191016193839 50 230 0.0 4.0 0.00 1.00 1.00 78 1011.2
20191016193336 51 221 1.0 6.0 0.00 1.00 1.00 79 1011.0
20191016192829 51 142 1.0 6.0 0.00 1.00 1.00 78 1011.0
20191016192325 51 269 0.0 5.0 0.00 1.00 1.00 78 1010.9
20191016191902 51 271 2.0 5.0 0.00 1.00 1.00 78 1010.9
20191016191358 51 284 1.0 10.0 0.00 1.00 1.00 77 1010.8
20191016190854 51 278 1.0 10.0 0.00 1.00 1.00 78 1010.8
20191016190334 52 288 3.0 8.0 0.00 1.00 1.00 78 1010.8
20191016185830 52 246 1.0 7.0 0.00 1.00 1.00 79 1010.7
20191016185327 53 244 1.0 7.0 0.00 1.00 1.00 78 1010.5
20191016184903 53 219 3.0 9.0 0.00 1.00 1.00 77 1010.4
20191016184359 53 256 3.0 9.0 0.00 1.00 1.00 78 1010.4
20191016183853 54 236 1.0 7.0 0.00 1.00 1.00 79 1010.4
20191016183347 53 244 1.0 7.0 0.00 1.00 1.00 79 1010.4
20191016182828 54 157 1.0 14.0 0.00 1.00 1.00 79 1010.5
20191016182405 54 360 5.0 11.0 0.00 1.00 1.00 79 1010.5
20191016181859 54 279 0.0 10.0 0.00 1.00 1.00 81 1010.4
20191016181352 54 249 4.0 9.0 0.00 1.00 1.00 80 1010.5
20191016180848 54 224 2.0 7.0 0.00 1.00 1.00 84 1010.6
20191016180345 53 226 3.0 7.0 0.00 1.00 1.00 83 1010.6
20191016175842 54 227 2.0 7.0 0.00 1.00 1.00 82 1010.5
20191016175320 54 288 0.0 9.0 0.00 1.00 1.00 83 1010.5
20191016174857 53 290 4.0 9.0 0.00 1.00 1.00 84 1010.6
20191016174352 53 236 1.0 7.0 0.00 1.00 1.00 85 1010.6
20191016173848 53 250 0.0 3.0 0.00 1.00 1.00 88 1010.6
20191016173345 53 250 1.0 5.0 0.00 1.00 1.00 87 1010.5
20191016172841 53 251 1.0 5.0 0.00 1.00 1.00 87 1010.6
20191016172338 53 266 1.0 6.0 0.00 1.00 1.00 88 1010.5
20191016171819 53 285 1.0 7.0 0.00 1.00 1.00 88 1010.5
20191016171356 53 265 3.0 7.0 0.00 1.00 1.00 88 1010.6
20191016170852 53 261 0.0 8.0 0.00 1.00 1.00 88 1010.5
20191016170348 53 255 3.0 8.0 0.00 1.00 1.00 90 1010.5
20191016165845 53 217 2.0 6.0 0.00 1.00 1.00 87 1010.4
20191016165342 53 204 0.0 6.0 0.00 1.00 1.00 89 1010.4
20191016164838 53 205 3.0 6.0 0.00 1.00 1.00 88 1010.4
20191016164319 54 251 0.0 7.0 0.00 1.00 1.00 90 1010.5
20191016163856 54 256 0.0 7.0 0.00 1.00 1.00 90 1010.5
20191016163353 54 261 1.0 7.0 0.01 1.00 1.00 88 1010.4
20191016162849 54 247 0.0 9.0 0.01 1.00 1.00 88 1010.4
20191016162346 54 248 2.0 7.0 0.01 1.00 1.00 91 1010.3
20191016161837 53 248 0.0 8.0 0.02 1.00 1.00 91 1010.3
20191016161330 53 247 2.0 8.0 0.02 1.00 1.00 91 1010.3
20191016160809 53 234 0.0 4.0 0.04 1.00 1.00 92 1010.3
20191016160344 52 229 0.0 3.0 0.04 1.00 1.00 92 1010.3
20191016155841 53 231 0.0 3.0 0.04 1.00 1.00 93 1010.3
20191016155334 52 360 0.0 9.0 0.04 1.00 1.00 94 1010.3
20191016154831 51 231 0.0 9.0 0.05 1.00 1.00 93 1010.1
20191016154328 51 262 0.0 7.0 0.05 1.00 1.00 94 1010.2
20191016153904 51 242 0.0 0.0 0.06 1.00 1.00 94 1009.9